This is the latest recevied weather packets stored in our database for station/object YS1AHL-24. If no packets are shown the sender has not sent any weather packets the latest 1 day(s).
| Time | Temp. | Humidity | Pressure | Rain* | Wind** | Luminosity | Snow |
|---|---|---|---|---|---|---|---|
| 1778036110 | 11.67° C | 77% | 1007 hPa | 0 mm | - | - | - |
| 1778035570 | 12.22° C | 77% | 1007 hPa | 0 mm | - | - | - |
| 1778034969 | 12.22° C | 76% | 1007 hPa | 0 mm | - | - | - |
| 1778034909 | 12.22° C | 76% | 1007 hPa | 0 mm | - | - | - |
| 1778034368 | 12.22° C | 75% | 1006 hPa | 0 mm | - | - | - |
| 1778034308 | 12.22° C | 75% | 1006 hPa | 0 mm | - | - | - |
| 1778033768 | 12.22° C | 74% | 1006 hPa | 0.25 mm | - | - | - |
| 1778031966 | 13.33° C | 68% | 1007 hPa | 0 mm | - | - | - |
| 1778031906 | 13.33° C | 68% | 1007 hPa | 0 mm | - | - | - |
| 1778030765 | 13.89° C | 63% | 1005 hPa | 0 mm | - | - | - |
| 1778030705 | 13.89° C | 63% | 1005 hPa | 0 mm | - | - | - |
| 1778029564 | 13.89° C | 60% | 1005 hPa | 0 mm | - | - | - |
| 1778028963 | 13.33° C | 57% | 1006 hPa | 0 mm | - | - | - |
| 1778028903 | 13.33° C | 57% | 1006 hPa | 0 mm | - | - | - |
| 1778027762 | 13.33° C | 56% | 1005 hPa | 0 mm | - | - | - |
| 1778027702 | 13.33° C | 56% | 1005 hPa | 0 mm | - | - | - |
| 1778025960 | 14.44° C | 57% | 1003 hPa | 0 mm | - | - | - |
| 1778024158 | 15° C | 57% | 1004 hPa | 0 mm | - | - | - |
| 1778024098 | 15° C | 57% | 1004 hPa | 0 mm | - | - | - |
| 1778022957 | 10° C | 61% | 1003 hPa | 0 mm | - | - | - |
| 1778022296 | 10.56° C | 61% | 1003 hPa | 0 mm | - | - | - |
| 1778021756 | 11.11° C | 61% | 1003 hPa | 0 mm | - | - | - |
| 1778019954 | 12.22° C | 61% | 1002 hPa | 0 mm | - | - | - |
| 1778019293 | 12.78° C | 61% | 1002 hPa | 0 mm | - | - | - |
| 1778018152 | 13.33° C | 61% | 1003 hPa | 0 mm | - | - | - |
* Rain latest hour (hover to see other rain measurements)
** Current wind speed in m/s (hover to see current wind gust speed)